Regional Weather Roundup
Issued by NWS

Home | Current Version | Previous Version | Graphics & Text | Print | Product List | Glossary On
Versions: 1 2 3 4 5 6 7 8 9 10 11 12 13 14 15 16 17 18 19 20 21 22 23 24 25 26 27 28 29 30 31 32 33 34 35 36 37 38 39 40 41 42 43 44 45 46 47 48 49 50
000
ASUS43 KLOT 302321
RWRIL

ILLINOIS REGIONAL WEATHER ROUNDUP
NATIONAL WEATHER SERVICE CHICAGO/ROMEOVILLE IL
600 PM CDT MON MAR 30 2015

NOTE: "FAIR" INDICATES FEW OR NO CLOUDS BELOW 12,000 FEET WITH NO
SIGNIFICANT WEATHER AND/OR OBSTRUCTIONS TO VISIBILITY.

* THESE STATIONS ARE NOT UNDER NWS QUALITY CONTROL. THEY ALSO MAY NOT
  REPORT WEATHER SUCH AS PRECIPITATION OR FOG.

ILZ001-002-007-009-015-016-024-310000-
NORTHWEST ILLINOIS

CITY           SKY/WX    TMP DP  RH WIND       PRES   REMARKS
MOLINE         PTSUNNY   70  28  21 SW16G25   29.86F
STERLING*      CLOUDY    63  36  36 SW3       29.88F
SAVANNA*       CLOUDY    63  31  30 SW6       29.86F
$$

ILZ003-004-008-010-011-017-018-310000-
NORTH CENTRAL ILLINOIS

CITY           SKY/WX    TMP DP  RH WIND       PRES   REMARKS
ROCKFORD       CLOUDY    58  29  33 NE9       29.91F
FREEPORT*      CLOUDY    55  34  44 E9        29.90S
ROCHELLE*      CLOUDY    61  33  34 W17G23    29.91S
DE KALB*       CLOUDY    58  33  39 N5        29.91S
PERU*          CLOUDY    65  30  27 SW14      29.90F
$$

ILZ005-006-012>014-019>023-310000-
NORTHEAST ILLINOIS

CITY           SKY/WX    TMP DP  RH WIND       PRES   REMARKS
CHICAGO-OHARE  CLOUDY    58  32  37 NE7       29.92S
CHICAGO-MIDWAY CLOUDY    61  31  32 N6        29.93S
AURORA         CLOUDY    60  34  37 W10G20    29.91F
LANSING*       CLOUDY    60  27  28 W3        29.93F
JOLIET*        CLOUDY    64  32  30 W3        29.91F
WAUKEGAN       LGT RAIN  52  36  54 NW3       29.94R
DUPAGE AIRPORT CLOUDY    57  38  48 N9        29.90F
KANKAKEE*      CLOUDY    61  35  37 SW10      29.95F
WHEELING       CLOUDY    56  33  42 N6        29.95R
MORRIS*        CLOUDY    62  32  32 SW6       29.91S
ROMEOVILLE*    CLOUDY    61  29  28 W12G21    29.91F
NORTHERLY ISL    N/A     51  33  50 NE10        N/A
$$

LMZ740>746-310000-
SOUTHERN LAKE MICHIGAN

STATION/POSITION SKY/WX   TEMP    WIND        PRES    VSBY  WAVE
                          AIR SEA DIR/SP/G                  HT/PER
                          (F)     (DEG/KT/KT) (MB)    (MI)  (FT/S)
HARRISON CRIB              48     360/ 11/ 12   N/A
BURNHAM HARBOR             50     360/ 13/ 14   N/A
CALUMET HARBOR             60     280/  8/ 11 1012.5F
BURNS HARBOR               49     290/  7/ 11 1014.9F
MICHIGAN CITY              53     130/  1/  2   N/A
$$

ILZ025>027-034>036-040-047-049-050-058-095>099-310000-
WEST-CENTRAL ILLINOIS

CITY           SKY/WX    TMP DP  RH WIND       PRES   REMARKS
QUINCY         SUNNY     68  29  23 SW15      29.95F
GALESBURG*     MOSUNNY   66  32  28 SW17G26   29.90F
MACOMB*        SUNNY     67  31  26 SW20G25   29.94F
JACKSONVILLE*  SUNNY     69  31  24 SW15G21   29.97F
PITTSFIELD*    SUNNY     68  32  26 SW16      29.98F
$$

ILZ028>032-037-038-041>044-048-051>054-059>061-310000-
CENTRAL ILLINOIS

CITY           SKY/WX    TMP DP  RH WIND       PRES   REMARKS
PONTIAC        CLOUDY    65  33  30 SW13      29.94F
BLOOMINGTON    CLOUDY    64  32  30 SW13      29.96F
DECATUR        MOSUNNY   65  31  28 SW17      29.99F
PEORIA         MOSUNNY   69  29  22 SW16      29.92F
LACON*         PTSUNNY   66  28  24 SW10G21   29.90F
LINCOLN*       MOSUNNY   68  31  25 SW12G18   29.95F
SPRINGFIELD    MOSUNNY   68  31  25 SW10G20   29.98F
TAYLORVILLE    PTSUNNY   63  34  34 SW14      30.00F
$$

ILZ033-039-045-046-055>057-062-063-310000-
EAST-CENTRAL ILLINOIS

CITY           SKY/WX    TMP DP  RH WIND       PRES   REMARKS
CHAMPAIGN      PTSUNNY   62  34  35 SW15      29.98F
DANVILLE*      PTSUNNY   60  33  36 SW14      29.96S
RANTOUL*       CLOUDY    64  35  33 SW10      29.97F
MATTOON        MOSUNNY   62  31  31 SW9       30.02F
PARIS*         MOSUNNY   61  37  41 SW14G21   30.02F
$$

ILZ079-100>102-310000-
SOUTHWEST ILLINOIS

CITY           SKY/WX    TMP DP  RH WIND       PRES   REMARKS
ALTON          SUNNY     66  18  15 SW9       30.02F
BELLEVILLE     SUNNY     68  31  25 S8        30.02F
CAHOKIA*       SUNNY     70  26  19 S6        30.01F
SPARTA*        SUNNY     66  32  28 S8        30.05F
$$

ILZ064>066-069>071-074>076-080>082-084>086-088>090-092>094-310000-
SOUTH-CENTRAL ILLINOIS

CITY           SKY/WX    TMP DP  RH WIND       PRES   REMARKS
CARBONDALE     SUNNY     66  30  26 SW6       30.07F
CAIRO*         SUNNY     64  38  37 SW8       30.12R
EFFINGHAM*     MOSUNNY   63  27  26 SW12      30.06S
MARION         MOSUNNY   68  28  22 SW9       30.09F
MT. VERNON     SUNNY     64  32  29 S8        30.06F
CENTRALIA*     SUNNY     64  32  30 SW9       30.05F
SALEM*         SUNNY     66  29  25 SW7       30.06F
METROPOLIS*    SUNNY     65  33  30 SW8       30.10S
$$

ILZ067-068-072-073-078-083-087-091-310000-
SOUTHEAST ILLINOIS

CITY           SKY/WX    TMP DP  RH WIND       PRES   REMARKS
LAWRENCEVILLE  SUNNY     63  29  27 W14       30.06F
FLORA*         SUNNY     64  31  29 SW9       30.06F
FAIRFIELD*     SUNNY     64  31  29 SW7       30.06F
HARRISBURG*    SUNNY     65  30  26 W8        30.09F
ROBINSON*      SUNNY     62  32  31 SW12      30.06F
CARMI*         SUNNY     64  23  21 W7        30.07F
$$

ABBREVIATIONS USED IN REMARKS
   TC - TEMPERATURE IN CELSIUS
  WCI - WIND CHILL INDEX
   HX - HEAT INDEX
  VSB - VISIBILITY
$$




USA.gov is the U.S. government's official web portal to all federal, state and local government web resources and services.